Flag for Russia Weather past 2 weeks in Bryansk, Russia

Now
43 °F

Light rain. Fog.


Feels Like: 41 °F
Forecast: 38 / 55 °F
Wind: 3 mph from North

Location: Brjansk


UV Index: 3 (Moderate)

Visibility: 3 mi


Pressure: 29.98 "Hg

Humidity: 100%

Dew point: 43 °F

Location of BryanskLocation

Historic Weather in Bryansk

°F

Bryansk temperature yesterday

Maximum temperature yesterday: 50 °F (at 4:00 PM)
Minimum temperature yesterday: 41 °F (at 5:00 AM)
Average temperature yesterday: 46 °F

Past Weeks' High & Low Weather Summary

 TemperatureHumidityPressure
High55 °F (Apr 6, 4:00 PM)100% (Apr 9, 7:00 AM)30.42 "Hg (Apr 9, 7:00 AM)
Low21 °F (Apr 2, 7:00 AM)19% (Apr 6, 3:00 PM)29.62 "Hg (Apr 4, 7:00 AM)
Average40 °F62%29.95 "Hg
* Reported Apr 1 8:30 AM — Apr 16 8:00 AM, Bryansk, Weather by CustomWeather, © 2014

Note: Actual official high and low records may vary slightly from our data, if they occured in-between our weather recording intervals... More about our weather records

Advertising

Historic Weather Conditions — Data for Previous 24 hours

 ConditionsComfort  
Time TempWeatherWind HumidityBarometerVisibility
8:00 AM
Apr 16
43 °FLight rain. Fog.1 mph100%29.95 "Hg3 mi
7:00 AM43 °FLight rain. Overcast.1 mph93%29.95 "Hg4 mi
6:00 AM43 °FLight rain. Overcast.3 mph100%29.92 "Hg6 mi
5:00 AM43 °FLight rain. Overcast.1 mph100%29.92 "Hg6 mi
3:00 AM43 °FLight rain. Overcast.3 mph100%29.89 "Hg5 mi
2:00 AM45 °FLight rain. Mostly cloudy.3 mph100%29.89 "Hg4 mi
1:00 AM46 °FLight rain. Fog.8 mph93%29.89 "Hg2 mi
12:00 AM46 °FLight rain. Fog.No wind93%29.86 "Hg2 mi
11:00 PM
Apr 15
48 °FOvercast.6 mph87%29.89 "Hg6 mi
10:00 PM48 °FOvercast.8 mph87%29.86 "Hg6 mi
9:00 PM48 °FOvercast.8 mph87%29.86 "Hg4 mi
8:00 PM48 °FOvercast.10 mph94%29.83 "HgN/A
7:00 PM50 °FOvercast.8 mph88%29.83 "HgN/A
6:00 PM50 °FLight rain. Mostly cloudy.8 mph88%29.83 "HgN/A
5:00 PM50 °FLight rain. Mostly cloudy.10 mph94%29.80 "Hg2 mi
4:00 PM50 °FOvercast.10 mph88%29.80 "HgN/A
3:00 PM48 °FOvercast.8 mph94%29.80 "HgN/A
2:00 PM48 °FMostly cloudy.10 mph94%29.80 "Hg6 mi
1:00 PM48 °FMostly cloudy.8 mph94%29.77 "Hg5 mi
12:00 PM46 °FLight rain. Fog.13 mph100%29.77 "Hg3 mi
11:00 AM45 °FLight rain. Fog.8 mph100%29.77 "Hg3 mi
10:00 AM45 °FLight rain. Mostly cloudy.10 mph93%29.77 "Hg4 mi
Weather by CustomWeather, © 2014

See weather overview